Location: Newark
(27.9675°N, 86.8869°E)
Time: 13:21:01
(UTC+00:00)

SR - Pass Details

Date: 28 October 2019
Orbit: 574 x 882 km, 66.7° (Epoch: 18 November)

Event Time Altitude Azimuth Distance (km) Brightness Sun altitude
Rises 15:04:57 0° 254° (WSW) 3,045 ? -47.5°
Enters shadow 15:05:50 - 259° (W) 2,805 ? -47.7°
Reaches altitude 10° 15:08:44 10° 285° (WNW) 2,212 - -48.3°
Maximum altitude 15:10:44 12° 308° (NW) 2,104 - -48.8°
Drops below altitude 10° 15:12:48 10° 332° (NNW) 2,298 - -49.2°
Sets 15:16:58 0° 2° (N) 3,310 - -50.1°
